Tracking 35237 objects as of 5-Sep-2026
HD Live streaming from Space Station
objects crossing your sky now

SL-12 R/B(2)

Track SL-12 R/B(2) now!


NORAD ID: 25900
Int'l Code: 1999-047E
Launch date: September 6, 1999
Source: Commonwealth of Independent States (former USSR) (CIS)
Launch site: TYURATAM MISSILE AND SPACE COMPLEX (TTMTR)

Note: This is a ROCKET BODY
Your satellite tracking list
Your tracking list is empty




NASA's NSSDC Master Catalog

Two Line Element Set (TLE):
1 25900U 99047E   26241.23828310 -.00000320  00000-0  00000+0 0  9992
2 25900  14.5277 358.6259 0101366  64.8798 292.0175  1.00122836 98704
Source of the keplerian elements: AFSPC